Tracking 19644 objects as of 24-Apr-2019
HD Live streaming from Space Station
objects crossing your sky now

THORAD AGENA D DEB

Track THORAD AGENA D DEB now!
10-day predictions


NORAD ID: 4948
Int'l Code: 1970-025GJ
Perigee: 935.2 km
Apogee: 1,245.8 km
Inclination: 99.5 °
Period: 106.9 minutes
Semi major axis: 7461 km
RCS: 0.0194 m2 (small)
Launch date: April 8, 1970
Source: United States (US)
Launch site: AIR FORCE WESTERN TEST RANGE (AFWTR)

Note: This is SATELLITE DEBRIS
aabbcc
Your satellite tracking list
Your tracking list is empty




NASA's NSSDC Master Catalog

Two Line Element Set (TLE):
1  4948U 70025GJ  19113.39139505 +.00001433 +00000-0 +21298-2 0  9994
2  4948 099.5426 047.4572 0208158 180.7726 300.7756 13.46989063386257
Source of the keplerian elements: AFSPC